2023/11/23 00:00:00, 0.0, 4.2
2023/11/23 00:10:00, 0.1, 4.3
2023/11/23 00:20:00, 0.1, 4.2
2023/11/23 00:30:00, 0.1, 4.2
2023/11/23 00:40:00, 0.1, 4.3
2023/11/23 00:50:00, 0.0, 4.0
2023/11/23 01:00:00, 0.0, 4.1
2023/11/23 01:10:00, 0.0, 4.0
2023/11/23 01:20:00, 0.0, 4.1
2023/11/23 01:30:00, 0.0, 4.0
2023/11/23 01:40:00, 0.0, 4.3
2023/11/23 01:50:00, 0.0, 4.3
2023/11/23 02:00:00, 0.1, 4.1
2023/11/23 02:10:00, 0.1, 4.1
2023/11/23 02:20:00, 0.0, 4.7
2023/11/23 02:30:00, 0.0, 4.8
2023/11/23 02:40:00, 0.0, 4.7
2023/11/23 02:50:00, 0.0, 5.0
2023/11/23 03:00:00, 0.1, 5.0
2023/11/23 03:10:00, 0.0, 4.8
2023/11/23 03:20:00, 0.0, 5.2
2023/11/23 03:30:00, 0.0, 5.3
2023/11/23 03:40:00, 0.0, 5.4
2023/11/23 03:50:00, 0.0, 5.7
2023/11/23 04:00:00, 0.0, 5.6
2023/11/23 04:10:00, 0.0, 5.7
2023/11/23 04:20:00, 0.0, 5.4
2023/11/23 04:30:00, 0.0, 5.7
2023/11/23 04:40:00, 0.0, 5.5
2023/11/23 04:50:00, 0.1, 5.6
2023/11/23 05:00:00, 0.1, 5.7
2023/11/23 05:10:00, 0.0, 5.5
2023/11/23 05:20:00, 0.0, 5.3
2023/11/23 05:30:00, 0.0, 5.0
2023/11/23 05:40:00, 0.0, 5.2
2023/11/23 05:50:00, 0.1, 5.4
2023/11/23 06:00:00, 0.1, 5.6
2023/11/23 06:10:00, 0.2, 5.5
2023/11/23 06:20:00, 0.1, 5.9
2023/11/23 06:30:00, 0.1, 6.1
2023/11/23 06:40:00, 0.0, 6.2
2023/11/23 06:50:00, 0.1, 5.7
2023/11/23 07:00:00, 0.0, 6.0
2023/11/23 07:10:00, 0.2, 5.7
2023/11/23 07:20:00, 0.1, 6.5
2023/11/23 07:30:00, 0.0, 6.0
2023/11/23 07:40:00, 0.0, 6.6
2023/11/23 07:50:00, 0.2, 6.2
2023/11/23 08:00:00, 0.2, 7.6
2023/11/23 08:10:00, 0.1, 7.6
2023/11/23 08:20:00, 0.0, 8.1
2023/11/23 08:30:00, 0.0, 8.6
2023/11/23 08:40:00, 0.0, 9.6
2023/11/23 08:50:00, 0.0,10.1
2023/11/23 09:00:00, 0.1,11.8
2023/11/23 09:10:00, 0.2,12.2
2023/11/23 09:20:00, 0.2,14.7
2023/11/23 09:30:00, 0.3,16.8
2023/11/23 09:40:00, 0.4,23.0
2023/11/23 09:50:00, 0.3,24.4
2023/11/23 10:00:00, 0.3,22.2
2023/11/23 10:10:00, 0.3,24.2
2023/11/23 10:20:00, 0.0,18.1
2023/11/23 10:30:00, 0.0,16.9
2023/11/23 10:40:00, 0.0,18.3
2023/11/23 10:50:00, 0.2,21.3
2023/11/23 11:00:00, 0.4,20.6
2023/11/23 11:10:00, 0.4,20.6
2023/11/23 11:20:00, 0.4,19.3
2023/11/23 11:30:00, 0.4,19.5
2023/11/23 11:40:00, 0.4,20.0
2023/11/23 11:50:00, 0.3,19.4
2023/11/23 12:00:00, 0.4,18.5
2023/11/23 12:10:00, 0.3,18.0
2023/11/23 12:20:00, 0.2,18.3
2023/11/23 12:30:00, 0.0,17.8
2023/11/23 12:40:00, 0.0,18.4
2023/11/23 12:50:00, 0.2,18.6
2023/11/23 13:00:00, 0.3,18.1
2023/11/23 13:10:00, 0.3,18.4
2023/11/23 13:20:00, 0.0,17.6
2023/11/23 13:30:00, 0.0,17.3
2023/11/23 13:40:00, 0.0,17.7
2023/11/23 13:50:00, 0.1,18.3
2023/11/23 14:00:00, 0.0,17.7
2023/11/23 14:10:00, 0.0,14.8
2023/11/23 14:20:00, 0.0,14.1
2023/11/23 14:30:00, 0.0,14.1
2023/11/23 14:40:00, 0.0,13.3
2023/11/23 14:50:00, 0.0,13.1
2023/11/23 15:00:00, 0.0,13.7
2023/11/23 15:10:00, 0.0,13.4
2023/11/23 15:20:00, 0.0,12.9
2023/11/23 15:30:00, 0.0,12.8
2023/11/23 15:40:00, 0.0,12.6
2023/11/23 15:50:00, 0.0,12.4
2023/11/23 16:00:00, 0.0,12.5
2023/11/23 16:10:00, 0.0,12.6
2023/11/23 16:20:00, 0.0,12.2
2023/11/23 16:30:00, 0.0,12.0
2023/11/23 16:40:00, 0.0,12.4
2023/11/23 16:50:00, 0.0,13.1
2023/11/23 17:00:00, 0.0,13.1
2023/11/23 17:10:00, 0.0,12.5
2023/11/23 17:20:00, 0.0,12.4
2023/11/23 17:30:00, 0.0,13.0
2023/11/23 17:40:00, 0.0,12.5
2023/11/23 17:50:00, 0.0,12.3
2023/11/23 18:00:00, 0.0,12.1
2023/11/23 18:10:00, 0.0,12.0
2023/11/23 18:20:00, 0.0,12.7
2023/11/23 18:30:00, 0.0,12.0
2023/11/23 18:40:00, 0.0,12.0
2023/11/23 18:50:00, 0.0,11.4
2023/11/23 19:00:00, 0.0,12.4
2023/11/23 19:10:00, 0.0,11.8
2023/11/23 19:20:00, 0.0,11.4
2023/11/23 19:30:00, 0.0,11.1
2023/11/23 19:40:00, 0.0,11.3
2023/11/23 19:50:00, 0.0,11.7
2023/11/23 20:00:00, 0.0,10.9
2023/11/23 20:10:00, 0.0,10.7
2023/11/23 20:20:00, 0.0,10.4
2023/11/23 20:30:00, 0.0,10.5
2023/11/23 20:40:00, 0.0,10.5
2023/11/23 20:50:00, 0.0,10.1
2023/11/23 21:00:00, 0.0, 9.9
2023/11/23 21:10:00, 0.0, 9.8
2023/11/23 21:20:00, 0.0, 9.7
2023/11/23 21:30:00, 0.0, 9.8
2023/11/23 21:40:00, 0.0, 9.4
2023/11/23 21:50:00, 0.0, 9.2
2023/11/23 22:00:00, 0.0, 9.7
2023/11/23 22:10:00, 0.0, 9.6
2023/11/23 22:20:00, 0.0,10.3
2023/11/23 22:30:00, 0.0,11.8
2023/11/23 22:40:00, 0.0,11.0
2023/11/23 22:50:00, 0.0,11.8
2023/11/23 23:00:00, 0.0,11.6
2023/11/23 23:10:00, 0.0,11.6
2023/11/23 23:20:00, 0.0,11.4
2023/11/23 23:30:00, 0.0,11.2
2023/11/23 23:40:00, 0.0,12.0
2023/11/23 23:50:00, 0.0,12.5
